TimeEDT,TemperatureF,Dew PointF,Humidity,Sea Level PressureIn,VisibilityMPH,Wind Direction,Wind SpeedMPH,Gust SpeedMPH,PrecipitationIn,Events,Conditions,WindDirDegrees,DateUTC
12:54 AM,54.0,54.0,100,29.57,-9999.0,North,-9999.0,-,N/A,,Unknown,0,2012-10-16 04:54:00
1:54 AM,53.1,52.0,96,29.57,-9999.0,North,-9999.0,-,N/A,,Unknown,0,2012-10-16 05:54:00
2:54 AM,52.0,51.1,97,29.57,-9999.0,North,-9999.0,-,N/A,,Unknown,0,2012-10-16 06:54:00
3:54 AM,51.1,46.9,86,29.57,-9999.0,North,-9999.0,-,N/A,,Unknown,0,2012-10-16 07:54:00
4:54 AM,48.9,44.1,83,29.57,-9999.0,North,-9999.0,-,N/A,,Unknown,0,2012-10-16 08:54:00
5:54 AM,46.0,39.9,79,29.59,-9999.0,North,-9999.0,-,N/A,,Unknown,0,2012-10-16 09:54:00
6:54 AM,45.0,37.9,76,29.61,-9999.0,North,-9999.0,-,N/A,,Unknown,0,2012-10-16 10:54:00
7:54 AM,44.1,35.1,71,29.64,-9999.0,North,-9999.0,-,N/A,,Unknown,0,2012-10-16 11:54:00
8:54 AM,44.1,35.1,71,29.65,-9999.0,North,-9999.0,-,N/A,,Unknown,0,2012-10-16 12:54:00
9:54 AM,43.0,34.0,71,29.66,-9999.0,North,-9999.0,-,N/A,,Unknown,0,2012-10-16 13:54:00
10:54 AM,42.1,35.1,76,29.68,-9999.0,North,-9999.0,-,N/A,,Unknown,0,2012-10-16 14:54:00
11:54 AM,41.0,32.0,70,29.71,-9999.0,North,-9999.0,-,N/A,,Unknown,0,2012-10-16 15:54:00
12:54 PM,42.1,32.0,67,29.71,-9999.0,North,-9999.0,-,N/A,,Unknown,0,2012-10-16 16:54:00
1:54 PM,42.1,33.1,70,29.72,-9999.0,North,-9999.0,-,N/A,,Unknown,0,2012-10-16 17:54:00
2:54 PM,43.0,33.1,68,29.72,-9999.0,North,-9999.0,-,N/A,,Unknown,0,2012-10-16 18:54:00
3:54 PM,44.1,32.0,63,29.73,-9999.0,North,-9999.0,-,N/A,,Unknown,0,2012-10-16 19:54:00
4:54 PM,45.0,33.1,63,29.74,-9999.0,North,-9999.0,-,N/A,,Unknown,0,2012-10-16 20:54:00
5:54 PM,45.0,32.0,60,29.76,-9999.0,North,-9999.0,-,N/A,,Unknown,0,2012-10-16 21:54:00
6:54 PM,44.1,32.0,63,29.79,-9999.0,North,-9999.0,-,N/A,,Unknown,0,2012-10-16 22:54:00
7:54 PM,44.1,32.0,63,29.81,-9999.0,North,-9999.0,-,N/A,,Unknown,0,2012-10-16 23:54:00
8:54 PM,42.1,30.0,62,29.82,-9999.0,North,-9999.0,-,N/A,,Unknown,0,2012-10-17 00:54:00
9:54 PM,41.0,30.0,65,29.85,-9999.0,North,-9999.0,-,N/A,,Unknown,0,2012-10-17 01:54:00
10:54 PM,37.9,30.9,76,29.87,-9999.0,North,-9999.0,-,N/A,,Unknown,0,2012-10-17 02:54:00
11:54 PM,36.0,30.9,82,29.90,-9999.0,North,-9999.0,-,N/A,,Unknown,0,2012-10-17 03:54:00